User: anonymous   Login
Location: Unspecified
(0.0000°N, 0.0000°E)
Time: 05:18:38
(UTC+00:00)
Language:

SWISSCUBE - Orbit

View from above orbital plane
View from above orbital plane
View from above satellite
View from above satellite

Ground track
Ground track

The orbit data is extracted from the following two-line orbital elements,

1 35932U 09051B   16270.16766323  .00000252  00000-0  68192-4 0  9996
2 35932  98.4615  38.5352 0007300 351.8701   8.2376 14.55877902371902
Epoch (UTC): 26 September 2016 04:01:26
Eccentricity: 0.0007300
inclination: 98.4615°
perigee height: 701 km
apogee height: 711 km
right ascension of ascending node: 38.5352°
argument of perigee: 351.8701°
revolutions per day: 14.55877902
mean anomaly at epoch: 8.2376°
orbit number at epoch: 37190

The dashed part of the orbit path shows where the satellite is in the earth's shadow,  

DLR